Simultaneous Nadir Overpasses (SNOs) Predictions

Prediction of SNOs between AQUA and METOP-B Satellite Orbit:

Table of predicted SNOs for the next 14.0 days since TLE Epoch: 2/8/2013
Index Date (AQUA) Time (AQUA) Lat,Lon (AQUA) SZA (AQUA ) Date (METOP-B) Time (METOP-B) Lat,Lon (METOP-B) SZA (METOP-B ) Distance(km) Time Diff (sec)
1 02/10/2013 22:37:09 73.24,-163.90 87.37 02/10/2013 22:36:01 73.21,-165.85 87.44 62.85 68
2 02/10/2013 23:26:44 -73.73, 2.71 92.12 02/10/2013 23:26:32 -73.71, 2.63 92.13 3.30 12
3 02/11/2013 00:16:13 73.81, 170.16 87.96 02/11/2013 00:17:11 73.79, 170.14 87.93 2.90 58
4 02/13/2013 18:11:28 73.64, -98.28 86.86 02/13/2013 18:10:16 73.61, -98.53 86.86 8.50 72
5 02/13/2013 19:00:56 -73.76, 69.10 93.03 02/13/2013 19:00:54 -73.77, 69.16 93.02 2.20 2
6 02/13/2013 19:50:24 73.79,-123.34 87.00 02/13/2013 19:51:34 73.79,-123.45 86.99 3.32 70
7 02/16/2013 13:45:40 73.67, -31.90 85.93 02/16/2013 13:44:39 73.66, -32.01 85.93 3.56 61
8 02/16/2013 14:35:07 -73.74, 135.60 94.02 02/16/2013 14:35:18 -73.77, 135.58 93.99 3.57 11
9 02/16/2013 15:24:42 74.14, -57.67 86.42 02/16/2013 15:25:51 74.14, -56.19 86.34 45.03 69
10 02/19/2013 09:19:51 73.72, 34.46 84.98 02/19/2013 09:19:02 73.71, 34.52 84.98 1.90 49
11 02/19/2013 10:09:18 -73.78,-158.03 94.97 02/19/2013 10:09:42 -73.78,-158.00 94.98 1.10 24
12 02/22/2013 04:54:00 73.72, 100.93 83.96 02/22/2013 04:53:26 73.71, 100.93 83.96 0.61 34
13 02/22/2013 05:43:27 -73.78, -91.55 95.99 02/22/2013 05:44:06 -73.78, -91.58 95.99 1.02 39




NCC Satellite Simultaneous Nadir Overpasses (SNOs) Prediction Service
